Location: Arezzo
(43.4170°N, 11.8830°E)
Time: 14:54:48
(UTC+02:00)

STARLINK-2709 - Visible Passes

Search period start: 23 October 2021 00:00
Search period end: 01 November 2021 23:00
Orbit: 546 x 548 km, 53.1° (Epoch: 23 October)

Date Brightness Start Highest point End Pass type
(mag) Time Alt. Az. Time Alt. Az. Time Alt. Az.
24 Oct 6.8 05:36:40 10° SE 05:37:24 10° SE 05:38:08 10° ESE visible
25 Oct 6.4 05:28:40 10° SSE 05:30:55 14° SE 05:33:10 10° E visible
25 Oct 3.7 07:05:46 10° SW 07:09:54 88° SE 07:14:02 10° NE visible
26 Oct 6.0 05:22:32 14° SSE 05:24:27 19° SE 05:27:25 10° E visible
26 Oct 3.6 06:59:28 10° WSW 07:03:34 73° NNW 07:07:42 10° NE visible
27 Oct 5.4 05:17:20 24° SSE 05:18:00 25° SE 05:21:25 10° ENE visible
27 Oct 3.7 06:53:12 10° WSW 06:57:16 58° NNW 07:01:21 10° NE visible
28 Oct 5.1 05:11:56 33° ESE 05:11:56 33° ESE 05:15:17 10° ENE visible
28 Oct 4.0 06:47:34 14° W 06:50:58 47° NNW 06:54:59 10° NE visible
29 Oct 5.2 05:06:22 33° E 05:06:22 33° E 05:09:04 10° ENE visible
29 Oct 4.3 06:42:00 18° W 06:44:41 39° NNW 06:48:35 10° NE visible
30 Oct 5.6 05:00:41 28° ENE 05:00:41 28° ENE 05:02:46 10° ENE visible
30 Oct 4.5 06:36:17 20° WNW 06:38:25 33° NNW 06:42:12 10° NE visible
31 Oct 5.9 03:54:52 22° ENE 03:54:52 22° ENE 03:56:26 10° ENE visible
31 Oct 4.7 05:30:28 22° WNW 05:32:09 29° NNW 05:35:49 10° NE visible
01 Nov 6.2 03:48:58 18° NE 03:48:58 18° NE 03:50:03 10° NE visible
01 Nov 4.9 05:24:34 22° NW 05:25:53 26° NNW 05:29:25 10° NE visible
